Temperature
19 19 19 19 19 18 18 18 18 18 18 18 18 18 18 18 18 18 18 18 18 18 18 18 18 18 18 18 18 18 18 18 18 18 18 18 18 18 17 17 17 18 18
19 20 19 19 18 18 18 18 18 18 18 18 18 18 18 18 18 18 18 18 18 18 18 18 18 18 18 18 18 18 18 18 18 18 18 18 18 17 17 17 17 17 17
20 20 19 19 19 18 18 18 18 18 18 18 18 18 18 18 18 18 18 18 18 18 18 18 18 18 18 18 18 18 18 18 18 18 18 18 18 18 17 17 17 17 17
20 19 19 19 19 18 18 18 18 18 18 18 18 18 18 18 18 18 18 18 18 18 18 18 18 18 18 18 18 18 18 18 18 17 17 17 18 18 18 17 17 17 17
20 20 20 19 19 19 18 18 18 18 18 18 18 18 18 18 18 18 18 18 18 18 18 18 18 18 18 18 18 18 18 18 18 18 17 17 18 18 18 18 17 17 17
20 19 20 19 19 19 18 18 18 18 18 18 18 18 18 18 18 18 18 18 18 18 18 17 18 18 18 18 18 18 18 18 18 18 17 18 18 18 18 18 17 17 17
20 20 20 19 19 19 19 18 18 18 18 18 18 18 18 18 18 18 18 18 18 18 18 18 18 18 18 18 18 18 18 18 18 18 18 18 18 18 18 17 17 17 17
20 20 20 20 19 19 19 19 18 18 18 18 18 18 18 18 18 18 18 18 18 18 18 18 18 18 18 18 18 18 18 18 18 18 18 18 18 18 18 17 17 17 17
21 20 20 19 19 19 19 19 19 18 18 18 18 18 18 18 18 18 18 18 18 18 18 18 18 18 18 18 18 18 18 18 18 18 18 18 18 18 18 17 17 17 17
21 20 20 19 19 19 19 19 19 19 18 18 18 18 18 18 18 18 18 18 18 18 18 18 18 18 18 18 18 18 18 18 18 18 18 18 18 18 18 18 17 17 17
21 21 20 20 19 19 19 19 19 19 18 18 18 18 18 18 18 18 18 18 18 18 18 18 18 18 18 18 18 18 18 18 18 18 18 18 18 18 18 18 17 17 17
21 21 21 20 20 19 19 19 19 18 18 18 18 18 18 18 18 18 18 18 18 18 18 18 18 18 18 18 18 18 18 18 18 18 18 18 18 18 18 18 18 17 17
22 21 21 20 20 20 19 19 19 19 18 18 18 18 18 18 18 18 18 18 18 18 18 18 18 18 18 18 18 18 18 18 18 18 18 18 18 18 18 18 18 18 17
22 21 21 20 20 20 20 19 19 19 19 18 18 18 18 18 18 18 18 18 18 18 18 18 18 18 18 18 18 18 18 18 18 18 18 18 18 18 18 18 18 18 18
22 21 21 20 20 20 20 19 19 19 19 19 18 18 18 18 18 18 18 18 18 18 18 18 18 18 18 18 18 18 18 18 18 18 18 18 18 18 18 18 18 18 18
22 21 21 20 20 20 20 20 20 19 19 19 18 18 18 18 18 18 18 18 18 18 18 18 18 18 18 18 18 18 18 18 18 18 18 18 18 18 18 18 18 18 18
22 21 21 20 20 20 20 20 20 19 19 19 19 19 18 18 18 18 18 18 18 18 18 18 18 18 18 18 18 18 18 18 18 18 18 18 18 18 18 18 18 18 18
22 21 21 20 20 20 20 19 19 19 19 19 19 19 19 18 18 18 18 18 18 18 18 18 18 18 18 18 18 18 18 18 18 18 18 18 18 18 18 18 18 18 18
22 21 21 21 20 20 20 20 19 19 19 19 19 19 19 18 18 18 18 18 18 18 18 18 18 18 18 18 18 18 18 18 18 18 18 18 18 18 18 18 18 18 18
22 21 21 21 20 20 20 20 19 19 19 19 19 19 19 18 18 18 18 18 18 18 18 18 18 18 18 18 18 19 19 19 19 19 18 18 18 18 18 18 18 18 18
22 21 21 21 20 20 20 20 20 19 19 19 19 19 19 19 18 19 18 18 18 18 18 18 18 18 18 18 18 18 19 19 19 19 19 19 18 18 18 18 18 18 18
22 22 21 21 21 20 20 20 20 20 20 19 19 19 19 19 19 19 19 19 18 18 18 18 18 18 18 18 18 18 18 19 19 19 19 19 19 19 18 18 18 18 17
23 22 21 21 21 21 20 20 20 20 20 19 19 19 19 19 19 19 19 19 18 18 18 18 18 18 18 18 18 18 18 18 19 19 19 19 19 19 18 18 18 18 17
23 22 22 21 21 21 20 20 20 20 20 20 20 19 19 19 19 19 19 19 19 18 18 18 18 18 18 18 18 18 18 18 18 18 19 19 19 18 18 18 18 18 17
24 23 22 22 21 21 21 20 20 20 20 20 20 20 19 19 19 19 19 19 19 19 19 19 18 18 18 18 18 18 18 18 18 18 18 18 18 18 18 18 18 18 17
24 23 22 22 22 21 21 21 20 20 20 20 20 20 19 19 19 19 19 19 19 19 19 19 18 18 18 18 18 18 18 18 18 18 18 18 18 18 18 18 18 17 17
Wind_Speed
10 11 11 11 11 11 12 13 13 13 13 13 14 14 15 15 16 16 17 16 16 16 16 16 15 15 15 15 14 14 14 14 15 15 15 15 14 12 11 12 13 13 14
14 14 13 12 12 12 13 13 13 13 13 13 13 13 14 15 15 15 16 16 15 15 15 15 15 15 15 14 13 13 13 12 12 13 14 13 12 11 10 9 11 12 13
15 14 13 12 12 12 13 14 14 13 13 13 13 13 13 13 14 14 15 14 14 14 14 14 14 14 13 12 12 11 11 10 10 11 12 12 12 11 11 13 14 13 12
15 14 14 13 13 13 13 14 13 13 13 13 13 12 12 12 13 13 13 13 13 13 13 13 13 13 12 11 10 9 9 8 8 9 8 11 11 12 12 12 12 11 11
16 16 15 13 13 13 13 12 12 12 13 13 13 12 11 12 12 13 13 13 13 13 13 12 13 12 11 10 9 8 7 6 6 5 6 12 11 12 12 12 11 11 11
16 16 15 13 13 13 12 12 12 12 12 12 12 11 11 11 12 12 12 12 12 12 12 12 11 11 10 8 7 6 6 5 4 4 9 13 12 12 12 12 12 11 10
16 16 15 14 13 13 12 12 11 11 11 12 11 11 11 11 11 11 12 12 11 11 11 11 11 10 8 7 5 5 4 4 3 5 10 13 13 13 12 12 11 11 10
16 15 15 14 14 13 12 12 11 11 11 11 11 10 10 10 11 11 11 11 11 11 11 11 10 9 7 6 4 3 3 4 2 7 11 13 14 13 12 11 11 10 10
14 15 14 14 13 13 12 11 11 11 11 11 10 10 10 10 10 11 11 11 11 10 10 10 9 8 6 5 3 3 3 4 2 6 11 13 14 13 12 11 11 10 9
10 12 12 13 13 13 12 12 11 11 11 10 10 9 10 10 11 11 11 11 11 10 10 9 9 7 6 5 4 4 4 5 3 5 10 13 15 13 12 11 10 10 9
8 8 10 11 11 12 13 13 12 11 10 10 9 9 9 8 10 10 10 11 10 10 9 9 8 7 7 6 6 6 5 6 2 7 10 15 15 13 12 10 10 10 10
9 8 7 8 9 9 10 12 10 10 9 8 8 9 7 6 7 10 11 12 11 10 9 9 8 7 7 6 7 8 7 6 4 9 11 17 15 13 11 10 10 10 10
9 8 9 7 7 7 6 7 6 7 9 7 8 8 7 7 8 9 9 9 10 10 8 9 8 7 6 5 5 7 6 4 2 9 13 16 15 13 12 11 10 10 10
10 8 9 8 7 5 4 4 5 5 5 5 7 7 6 3 3 5 4 7 8 7 6 7 6 7 5 5 4 4 4 2 2 8 13 15 14 14 13 12 10 10 10
9 8 9 9 7 5 2 1 4 4 5 7 6 5 5 3 3 4 3 4 5 7 5 4 3 2 1 2 3 2 1 2 3 7 11 14 15 14 13 12 11 11 11
9 9 9 9 7 5 3 1 2 3 4 6 6 7 5 4 4 3 3 2 2 4 5 4 3 3 2 1 1 2 2 2 3 6 10 12 15 14 14 13 12 12 12
9 9 9 9 8 6 4 3 3 3 5 4 5 7 5 5 5 3 2 2 3 4 4 3 2 2 3 3 3 3 2 2 3 4 8 9 11 13 14 14 14 13 13
10 9 7 8 10 7 4 2 1 2 4 4 5 6 6 5 6 3 2 2 3 4 3 3 2 2 2 2 2 2 2 1 3 4 6 8 10 10 13 15 14 14 14
10 9 7 5 8 8 6 4 2 1 2 3 4 5 5 5 5 4 2 2 3 2 2 3 3 2 2 2 3 3 3 2 3 4 4 5 8 10 11 13 15 14 14
11 10 8 7 7 7 5 4 2 2 2 2 3 4 5 5 5 4 3 3 3 2 1 1 2 1 2 3 3 2 2 3 3 3 4 4 5 8 10 11 12 12 14
11 10 9 8 8 6 5 5 4 4 3 3 3 5 6 5 4 3 1 2 2 2 2 2 2 2 3 2 1 1 3 4 4 4 3 3 3 5 8 10 12 11 11
12 11 10 9 9 8 6 4 4 4 3 3 3 4 5 5 4 5 3 3 3 2 2 3 2 2 3 3 2 1 2 2 2 4 4 5 5 4 5 8 10 11 10
14 13 12 10 10 8 7 5 4 3 2 3 4 4 4 5 5 3 4 3 3 3 3 4 4 4 4 3 3 2 2 2 1 2 4 4 4 3 3 4 7 9 11
14 14 11 10 9 8 7 6 7 6 5 4 4 4 5 5 5 4 4 3 2 2 3 4 4 4 4 4 3 3 3 2 1 1 2 2 3 3 4 4 4 5 8
15 14 12 11 9 9 8 7 6 5 4 4 4 5 5 5 5 4 4 3 3 2 2 2 1 3 3 4 3 3 3 3 4 3 3 2 2 2 2 3 2 3 6
13 13 13 12 10 9 8 7 7 6 4 4 4 5 5 4 4 4 4 3 3 3 2 3 2 3 3 4 3 3 2 2 3 3 4 3 3 3 2 2 2 2 4
Wind_Direction
102 100 98 95 92 91 93 93 92 94 97 98 96 98 99 100 101 102 104 105 107 108 107 107 107 106 106 107 107 105 103 102 103 104 105 106 107 107 108 112 111 106 112
107 103 98 96 98 99 99 97 94 94 98 99 99 100 102 104 106 107 108 109 109 109 109 109 110 109 109 109 109 110 110 109 113 115 113 110 106 105 105 108 110 114 116
109 108 102 100 101 103 100 98 96 96 100 103 103 102 103 105 107 110 112 113 113 113 114 115 116 114 114 114 113 117 120 125 132 131 124 114 108 106 105 104 110 118 119
111 109 104 104 103 105 103 101 99 97 99 101 103 104 107 109 110 111 113 114 115 117 118 119 120 118 117 119 121 125 131 140 148 148 141 126 123 118 116 115 118 120 122
106 106 108 107 108 108 107 106 104 102 102 102 102 105 108 111 112 112 112 113 114 116 120 124 123 122 122 125 132 140 147 155 167 169 130 117 116 126 126 125 124 122 123
113 111 111 111 114 113 112 110 108 107 105 105 105 106 113 116 118 117 116 114 116 118 122 125 123 124 127 132 143 154 166 174 186 161 127 123 125 133 131 131 128 126 126
113 114 118 119 117 116 115 112 110 108 110 110 110 110 115 121 123 122 119 118 120 122 123 122 124 126 130 139 151 165 184 213 217 135 119 118 127 134 135 135 132 132 132
115 116 121 124 124 122 120 120 117 113 113 115 117 116 116 121 129 124 124 121 122 124 126 127 128 130 134 142 158 186 220 264 174 125 120 123 134 137 137 138 138 139 139
116 124 133 136 131 129 127 127 124 120 117 120 122 125 127 127 128 128 128 127 127 128 131 135 135 137 142 151 177 216 250 276 285 140 124 129 138 141 143 144 145 145 145
118 126 137 139 141 142 139 138 133 131 130 131 133 135 136 136 138 138 138 137 135 134 136 138 143 147 156 171 199 229 256 278 244 132 119 133 143 146 148 151 153 154 155
119 123 135 136 147 149 143 143 145 146 146 148 150 155 155 154 150 150 141 143 143 142 143 147 153 162 172 189 211 231 252 252 183 119 125 140 147 151 155 157 160 161 163
131 124 125 130 140 137 133 141 154 149 152 165 154 161 167 156 149 142 147 151 151 153 155 164 173 182 196 196 209 224 240 240 178 126 138 148 152 157 161 164 167 170 172
128 123 128 120 108 109 121 140 145 143 147 158 152 156 167 160 156 148 155 160 167 171 174 170 186 205 206 199 195 210 231 249 167 131 144 152 157 163 168 172 176 180 181
124 126 118 111 98 86 101 127 143 144 147 147 153 165 160 167 158 145 157 173 174 181 178 174 197 207 200 198 201 209 215 227 140 124 149 161 165 170 174 180 184 188 189
128 125 115 112 104 97 85 136 134 129 140 144 144 161 161 161 133 136 158 178 181 173 169 187 203 180 171 212 226 220 216 201 139 136 153 173 176 179 182 186 190 193 194
132 128 124 126 126 126 145 148 113 141 142 140 154 164 167 143 125 134 153 171 176 169 168 178 187 170 192 225 239 243 236 207 172 151 162 178 184 187 191 193 196 200 201
139 137 139 144 141 152 166 179 160 164 147 141 141 146 146 141 143 163 170 169 164 174 165 171 196 178 191 201 218 232 236 217 197 175 168 175 186 193 196 198 201 204 205
146 143 159 158 149 158 165 184 156 150 124 127 138 141 147 149 155 175 180 175 177 180 170 183 197 197 207 215 221 239 239 201 210 195 187 185 181 186 196 202 204 206 207
147 148 156 147 146 158 162 171 174 127 107 133 139 145 159 168 163 179 184 165 189 197 195 210 165 199 211 221 226 221 227 216 216 224 207 196 187 178 181 197 204 206 208
151 153 158 158 155 159 160 163 181 159 158 167 151 151 162 183 179 186 186 183 204 194 191 188 158 219 226 240 253 240 240 218 221 217 218 210 189 188 186 185 189 204 211
157 159 165 171 161 166 172 174 182 178 183 178 171 157 167 198 185 183 222 176 201 195 199 204 187 210 232 237 255 278 263 231 216 207 212 217 201 205 191 181 186 192 199
163 164 167 174 170 180 173 176 181 174 183 189 175 150 176 195 192 196 193 205 199 185 211 224 205 219 241 217 209 229 267 271 257 221 197 208 211 206 201 195 188 187 192
168 171 178 178 173 183 171 180 182 162 188 189 178 165 185 200 199 202 183 215 204 198 202 216 211 222 234 242 225 212 228 244 281 272 221 214 198 196 205 191 193 193 198
172 174 170 169 172 176 177 189 189 187 193 193 180 171 182 196 201 191 190 202 218 220 199 223 212 222 227 244 247 234 231 226 218 282 298 280 226 214 216 220 197 187 196
174 171 167 166 172 176 188 192 197 200 194 185 167 169 183 190 200 189 181 191 198 218 218 227 252 232 239 245 250 243 243 233 223 224 251 267 271 251 230 218 196 175 174
169 167 166 166 173 178 190 194 198 208 194 183 177 174 188 184 190 190 182 184 194 218 218 217 230 219 243 255 259 256 238 230 226 229 241 244 244 247 231 206 182 153 161
Height
1503 1502 1501 1501 1502 1502 1502 1503 1504 1506 1507 1509 1510 1512 1513 1515 1517 1518 1520 1522 1524 1526 1528 1530 1532 1534 1536 1537 1539 1541 1542 1544 1545 1546 1548 1549 1550 1551 1552 1553 1554 1555 1556
1503 1503 1503 1504 1504 1505 1505 1506 1507 1508 1510 1511 1513 1514 1516 1517 1519 1521 1522 1524 1526 1528 1530 1532 1533 1536 1537 1539 1541 1543 1544 1545 1547 1548 1549 1550 1551 1552 1553 1554 1555 1556 1558
1504 1505 1505 1505 1506 1507 1508 1509 1510 1511 1512 1513 1515 1516 1518 1520 1521 1523 1525 1527 1528 1530 1531 1533 1535 1537 1539 1541 1543 1544 1546 1547 1548 1549 1550 1552 1553 1553 1555 1556 1557 1558 1559
1507 1506 1507 1507 1508 1509 1510 1511 1512 1514 1515 1516 1517 1519 1520 1522 1523 1525 1527 1528 1530 1531 1533 1535 1537 1539 1540 1542 1544 1546 1547 1548 1549 1551 1552 1553 1554 1555 1556 1557 1558 1559 1560
1508 1508 1509 1509 1510 1511 1512 1513 1515 1516 1517 1518 1519 1520 1522 1523 1525 1527 1528 1530 1531 1533 1534 1536 1538 1540 1542 1544 1545 1547 1548 1550 1551 1552 1554 1554 1555 1556 1557 1558 1559 1561 1562
1510 1510 1510 1511 1512 1513 1514 1516 1517 1518 1519 1520 1521 1522 1523 1525 1526 1528 1530 1532 1533 1535 1536 1538 1539 1541 1543 1545 1547 1548 1550 1551 1552 1553 1555 1555 1557 1558 1558 1560 1560 1562 1563
1512 1511 1512 1513 1514 1515 1516 1517 1519 1520 1521 1522 1523 1523 1525 1526 1528 1530 1531 1533 1534 1536 1538 1539 1541 1543 1544 1546 1548 1549 1551 1552 1554 1555 1556 1557 1558 1559 1560 1561 1562 1563 1564
1513 1513 1514 1515 1516 1517 1518 1519 1521 1521 1522 1523 1524 1526 1527 1528 1529 1531 1533 1534 1536 1537 1539 1541 1542 1544 1545 1547 1549 1550 1552 1553 1555 1556 1557 1557 1559 1560 1561 1561 1562 1564 1565
1515 1515 1516 1517 1518 1519 1520 1521 1522 1523 1524 1526 1527 1528 1529 1530 1531 1533 1534 1536 1537 1539 1541 1542 1544 1545 1547 1548 1550 1551 1553 1554 1555 1557 1557 1558 1559 1560 1561 1562 1563 1564 1565
1517 1518 1518 1519 1519 1520 1521 1523 1524 1525 1526 1527 1528 1530 1531 1532 1533 1535 1536 1538 1539 1540 1542 1544 1545 1547 1548 1550 1551 1553 1554 1555 1557 1557 1557 1559 1560 1561 1562 1563 1564 1565 1566
1519 1520 1521 1521 1522 1523 1523 1525 1526 1527 1528 1529 1530 1532 1533 1534 1535 1536 1538 1539 1541 1542 1543 1545 1546 1548 1549 1551 1552 1554 1555 1556 1557 1557 1558 1559 1560 1561 1562 1563 1564 1565 1566
1520 1521 1522 1523 1524 1526 1526 1527 1527 1528 1529 1531 1532 1533 1535 1536 1537 1538 1539 1541 1542 1543 1545 1546 1548 1549 1550 1552 1553 1555 1555 1556 1557 1557 1558 1559 1560 1561 1562 1563 1564 1565 1566
1521 1522 1523 1524 1525 1527 1528 1528 1529 1529 1530 1532 1534 1535 1536 1537 1538 1540 1541 1542 1543 1544 1546 1547 1548 1550 1551 1553 1554 1555 1556 1557 1558 1558 1558 1559 1560 1561 1561 1562 1563 1564 1565
1521 1523 1524 1525 1526 1527 1528 1529 1530 1531 1532 1534 1535 1536 1538 1539 1540 1541 1542 1543 1544 1545 1547 1548 1549 1551 1552 1554 1555 1556 1557 1557 1558 1558 1558 1559 1560 1560 1561 1562 1563 1563 1564
1522 1523 1524 1525 1526 1527 1528 1530 1531 1533 1534 1535 1536 1537 1539 1540 1540 1542 1543 1544 1544 1546 1547 1549 1550 1552 1553 1554 1555 1556 1556 1557 1558 1557 1557 1558 1559 1559 1560 1561 1562 1562 1563
1522 1523 1524 1525 1526 1527 1529 1530 1531 1533 1535 1536 1536 1537 1538 1540 1540 1542 1543 1544 1545 1546 1548 1549 1550 1552 1552 1553 1554 1555 1556 1556 1557 1557 1557 1557 1558 1558 1559 1560 1561 1561 1562
1521 1522 1524 1525 1526 1527 1529 1530 1532 1534 1535 1536 1537 1538 1538 1539 1540 1542 1543 1544 1545 1546 1548 1549 1550 1551 1552 1553 1554 1555 1555 1556 1556 1556 1556 1556 1557 1557 1558 1558 1559 1560 1561
1520 1522 1523 1525 1526 1527 1529 1530 1532 1534 1535 1536 1537 1538 1538 1539 1541 1542 1543 1544 1545 1546 1547 1548 1549 1551 1551 1552 1553 1554 1554 1554 1555 1555 1555 1555 1555 1556 1556 1557 1557 1558 1559
1518 1520 1522 1524 1525 1527 1529 1530 1532 1533 1535 1536 1537 1538 1538 1540 1540 1541 1542 1544 1545 1546 1547 1548 1549 1550 1550 1551 1552 1552 1552 1553 1553 1554 1554 1554 1554 1554 1554 1555 1555 1556 1557
1517 1519 1521 1523 1525 1526 1528 1530 1531 1533 1534 1535 1536 1537 1538 1539 1540 1541 1542 1543 1544 1545 1546 1547 1548 1548 1549 1550 1550 1551 1551 1551 1551 1552 1552 1553 1553 1553 1553 1553 1553 1554 1554
1515 1517 1520 1522 1523 1525 1527 1528 1530 1532 1533 1535 1536 1536 1537 1538 1539 1540 1541 1542 1543 1544 1544 1545 1546 1547 1548 1548 1549 1549 1549 1549 1549 1550 1550 1551 1551 1551 1551 1551 1551 1552 1552
1513 1515 1518 1520 1522 1524 1526 1527 1529 1531 1532 1534 1535 1535 1536 1537 1538 1540 1540 1541 1542 1542 1543 1544 1544 1545 1546 1547 1547 1548 1548 1548 1547 1548 1548 1548 1549 1549 1549 1549 1549 1549 1550
1510 1513 1516 1518 1520 1522 1524 1526 1529 1530 1531 1533 1534 1534 1535 1536 1537 1538 1539 1540 1540 1541 1541 1542 1543 1543 1544 1545 1546 1547 1547 1546 1545 1546 1546 1546 1547 1547 1547 1547 1547 1547 1547
1508 1511 1514 1516 1518 1520 1523 1525 1527 1528 1529 1531 1532 1533 1534 1535 1536 1537 1537 1538 1538 1539 1540 1540 1541 1542 1543 1543 1544 1544 1545 1544 1544 1544 1544 1544 1544 1544 1545 1545 1545 1545 1544
1506 1509 1511 1514 1516 1519 1521 1523 1525 1527 1528 1529 1530 1531 1532 1533 1534 1535 1536 1536 1537 1537 1538 1538 1539 1539 1540 1541 1541 1541 1542 1542 1542 1542 1542 1542 1542 1542 1542 1542 1542 1542 1542
1504 1507 1509 1511 1514 1516 1519 1521 1523 1525 1527 1528 1529 1530 1531 1532 1532 1533 1534 1535 1535 1535 1536 1536 1537 1537 1538 1538 1538 1539 1539 1539 1539 1539 1539 1539 1539 1539 1539 1539 1539 1539 1539